MCMWTC BRIDGEPORT, CA, CA

8:43 PM PDT on May 26, 2018 (GMT -0700)
MCMWTC BRIDGEPORT, CA

Weather History for KBAN - April, 2014

Change the Weather History Date:

Sunday, April 6, 2014

  Actual Average (KTVL) Record (KTVL)
Temperature  
Mean Temperature 38 °F -  
Max Temperature 57 °F 49 °F 68 °F (1988)
Min Temperature 19 °F 26 °F -1 °F (1975)
Degree Days  
Heating Degree Days 27    
Moisture  
Dew Point 21 °F    
Average Humidity 54    
Maximum Humidity 85    
Minimum Humidity 23    
Precipitation  
Precipitation 0.00 in - - ()
Sea Level Pressure  
Sea Level Pressure 30.25 in    
Wind  
Wind Speed 2 mph (ENE)    
Max Wind Speed 12 mph    
Max Gust Speed 17 mph    
Visibility 10 miles    
Events      
Averages and records for this station are not official NWS values.
T = Trace of Precipitation, MM = Missing Value Source: NWS Daily Summary

Daily Weather History Graph

Daily Weather History Graph

Search for Another Location

Airport or City:

Astronomy

Apr. 06, 2014 Rise Set
Actual Time 6:35 AM PDT 7:26 PM PDT
Civil Twilight 6:08 AM PDT 7:53 PM PDT
Nautical Twilight 5:36 AM PDT 8:24 PM PDT
Astronomical Twilight 5:03 AM PDT 8:57 PM PDT
Moon 11:43 AM PDT (4/6) 1:23 AM PDT (4/6)
Length of Visible Light 13h 44m
Length of Day
12h 50m
Waxing Crescent, 45% of the Moon is Illuminated
Apr 6
Waxing Crescent
Apr 7
First Quarter
Apr 15
Full
Apr 22
Last Quarter
Apr 28
New

Hourly Weather History & Observations

Time (PDT) Temp. Windchill Dew Point Humidity Pressure Visibility Wind Dir Wind Speed Gust Speed Precip Events Conditions
12:52 AM 27.0 °F - 18.0 °F 69% 30.21 in 10.0 mi Calm Calm - N/A   Clear
1:52 AM 25.0 °F - 18.0 °F 75% 30.21 in 10.0 mi Calm Calm - N/A   Clear
2:52 AM 24.1 °F - 18.0 °F 77% 30.22 in 10.0 mi Calm Calm - N/A   Clear
3:52 AM 21.9 °F - 17.1 °F 82% 30.23 in 10.0 mi Calm Calm - N/A   Clear
4:52 AM 21.0 °F - 16.0 °F 81% 30.23 in 10.0 mi Calm Calm - N/A   Clear
5:52 AM 19.9 °F - 15.1 °F 81% 30.25 in 10.0 mi Calm Calm - N/A   Clear
6:52 AM 19.0 °F - 15.1 °F 85% 30.30 in 10.0 mi Calm Calm - N/A   Clear
7:52 AM 25.0 °F - 19.9 °F 81% 30.32 in 10.0 mi Calm Calm - N/A   Clear
8:52 AM 34.0 °F - 21.9 °F 61% 30.30 in 10.0 mi Calm Calm - N/A   Scattered Clouds
9:52 AM 39.9 °F - 21.9 °F 49% 30.28 in 10.0 mi Calm Calm - N/A   Overcast
10:52 AM 45.0 °F 40.6 °F 26.1 °F 48% 30.28 in 10.0 mi NE 8.1 mph - N/A   Overcast
11:52 AM 50.0 °F - 27.0 °F 41% 30.25 in 10.0 mi Calm Calm - N/A   Clear
12:52 PM 53.1 °F - 25.0 °F 34% 30.23 in 10.0 mi ENE 8.1 mph - N/A   Clear
1:52 PM 54.0 °F - 26.1 °F 34% 30.23 in 10.0 mi Variable 4.6 mph 17.3 mph N/A   Clear
2:52 PM 55.9 °F - 23.0 °F 28% 30.22 in 10.0 mi ENE 10.4 mph - N/A   Clear
3:52 PM 55.9 °F - 18.0 °F 23% 30.22 in 10.0 mi ENE 11.5 mph 17.3 mph N/A   Clear
4:52 PM 57.9 °F - 19.9 °F 23% 30.21 in 10.0 mi ENE 5.8 mph 17.3 mph N/A   Clear
5:52 PM 55.0 °F - 21.0 °F 27% 30.22 in 10.0 mi Variable 5.8 mph - N/A   Clear
6:52 PM 52.0 °F - 19.9 °F 28% 30.25 in 10.0 mi Variable 5.8 mph - N/A   Clear
7:52 PM 45.0 °F - 21.9 °F 40% 30.27 in 10.0 mi Calm Calm - N/A   Clear
8:52 PM 41.0 °F 39.0 °F 23.0 °F 49% 30.27 in 10.0 mi Variable 3.5 mph - N/A   Clear
9:52 PM 37.9 °F - 23.0 °F 55% 30.30 in 10.0 mi Calm Calm - N/A   Clear
10:52 PM 34.0 °F - 21.9 °F 61% 30.30 in 10.0 mi Calm Calm - N/A   Clear
11:52 PM 33.1 °F - 23.0 °F 66% 30.30 in 10.0 mi Calm Calm - N/A   Clear